www.pogodaiklimat.ru

Погода и климат >> Архив погоды >> Россия >> Амурская область >> Свободный


АРХИВ ПОГОДЫ в Свободном

Время (UTC), дата Ветер
(напр.,м/с)
 
Видим.   Явления Облачность Т
(С)
Тd
(С)
f
(%)
Тe
(С)
Тes
(С)
Комфортность P
(гПа)
Po
(гПа)
Тmin
(С)
Tmax
(С)
R
(мм)
R24
(мм)
S
(см)
00 9.06 штиль 0 50 км 4/0
[]
+20.4 +13.6 65 +22 +33 комфорт 1009.3 986.3 +13.3 0.4
03 9.06 ЮВ 2 50 км 3/0
[Ci fib]
+24.0 +13.8 53 +26 +42 жарко 1008.4 985.7
06 9.06 Ю 2 50 км 6/3 1000 м
[Cu hum Ci fib]
+26.1 +14.6 49 +29 +37 жарко 1007.1 984.5
09 9.06 ЮЗ 3 50 км 10/3 1000 м
[Cu hum Ci sp]
+25.4 +12.0 43 +27 +28 жарко 1006.1 983.5
12 9.06 штиль 0 50 км 10/0
[Ci sp]
+19.4 +13.7 70 +21 +21 комфорт 1006.6 983.5 +27.5
15 9.06 ЮЗ 2 50 км ясно +17.0 +13.5 80 +17 +17 1006.8 983.5
18 9.06 штиль 0 50 км 3/0
[Ac trans]
+13.6 +11.0 84 +13 +13 1007.5 983.9
21 9.06 ЮЗ 3 50 км 6/3 1000 м
[Cb calv Ac trans]
+15.3 +13.0 86 +15 +15 1006.4 983.0
00 10.06 ЮЗ 3 50 км 8/0
[Ac cast Ci fib]
+20.5 +13.6 65 +23 +29 комфорт 1004.4 981.5 +12.1
03 10.06 З 5 50 км 10/0
[Ac trans Ci fib]
+26.0 +13.9 47 +28 +34 жарко 1001.0 978.6
06 10.06 З 3 50 км 8/3 1000 м
[Cu med, cong Ci fib]
+29.1 +10.8 32 +29 +36 жарко 1000.2 977.9
09 10.06 З 3 50 км 10/3 1000 м
[Cb calv Ci sp]
+25.8 +12.3 43 +27 +29 жарко 999.6 977.2
12 10.06 СВ 2
{12}
50 км зарница 10/8 1000 м
[Cb cap Ci sp]
+20.0 +12.0 60 +22 +22 комфорт 1002.6 979.7 +29.5
15 10.06 ЮВ 1 50 км {гроза, ливн. осадки} 9/3 1000 м
[Cb calv Ac cuf]
+14.7 +13.7 94 +15 +15 1003.4 980.1
18 10.06 СВ 2 50 км {гроза, ливн. осадки} 10/6 1000 м
[Sc Ac und]
+14.1 +13.1 94 +14 +14 1005.5 982.0
21 10.06 С 1 50 км 10/10 600 м
[Sc]
+11.0 +9.2 89 +11 +11 1006.9 983.1
00 11.06 СВ 2 50 км 6/3 600 м
[Sc Ac trans]
+14.9 +10.5 75 +15 +20 1007.2 983.7 +10.8 5
03 11.06 В 1 50 км 8/8 600 м
[Cb calv]
+18.4 +13.0 71 +20 +24 1006.9 983.7
06 11.06 ЮВ 1 50 км 6/6 600 м
[Cb calv]
+21.5 +13.4 60 +24 +30 комфорт 1005.7 982.8
09 11.06 В 2 50 км 10/4 1000 м
[Cb calv Ci fib]
+20.9 +12.7 59 +24 +25 комфорт 1005.6 982.7
12 11.06 штиль 0 50 км 10/0
[Ci sp]
+16.2 +12.3 78 +16 +16 1007.3 983.9 +22.6
15 11.06 Ю 1 50 км ясно +11.0 +10.1 94 +11 +11 1007.9 984.1
18 11.06 ЮВ 1 50 км 10/0
[Ac und]
+14.5 +13.0 91 +15 +15 1007.4 983.9
21 11.06 Ю 1 50 км 10/10 300 м
[St]
+14.1 +12.4 89 +14 +14 1007.3 983.8
00 12.06 Ю 2 50 км 10/10 300 м
[St]
+14.9 +12.4 85 +15 +15 1006.5 983.1 +11.0
03 12.06 ЮВ 2 50 км 10/10 300 м
[St]
+17.0 +13.7 81 +17 +17 1004.9 981.7
06 12.06 ЮВ 3 50 км 6/6 1000 м
[Cu hum]
+21.4 +15.0 67 +25 +29 комфорт 1001.5 978.7
09 12.06 З 1 4000 м гроза, ливневой дождь 10/10 600 м
[Cb cap]
+18.8 +17.0 89 +21 +21 комфорт 1000.3 977.4
12 12.06 ЮВ 3 50 км гроза без осадков {ливн. осадки} 10/10 600 м
[Cb cap]
+16.2 +15.1 93 +16 +16 999.6 976.5 +22.6 8
15 12.06 В 1 н/о н/о +15.7 +15.0 96 +16 +16 998.4 975.3
18 12.06 штиль 0 н/о н/о +15.1 +14.4 96 +15 +15 998.4 975.2
21 12.06 СВ 1 н/о н/о +15.0 +14.3 96 +15 +15 998.1 974.9
00 13.06 С 2 4000 м дымка 10/10 200 м
[St]
+15.4 +14.7 96 +15 +15 998.6 975.4 +14.8 64
03 13.06 СВ 2 н/о н/о +15.8 +13.9 88 +16 +16 999.4 976.3
06 13.06 С 3 н/о н/о +16.0 +12.8 81 +16 +16 999.9 976.7
09 13.06 С 2 н/о н/о +15.0 +11.5 80 +15 +15 1001.9 978.6
12 13.06 СВ 3 4000 м слаб. морось 10/10 300 м
[St]
+12.4 +11.3 93 +11 +11 1003.9 980.3 +17.2
15 13.06 СВ 3 н/о н/о +11.3 +10.3 94 +9 +9 1005.0 981.3
18 13.06 С 2 н/о н/о +9.8 +8.4 91 +8 +8 1006.2 982.3
21 13.06 С 2 н/о н/о +7.8 +4.6 80 +6 +6 1008.3 984.2
00 14.06 С 3 50 км 10/0
[Ac trans Ci sp]
+11.4 +5.2 66 +10 +14 1009.4 985.6 +7.5 0.7
03 14.06 С 3 н/о н/о +15.4 +6.7 56 +15 +15 1009.7 986.2
06 14.06 СВ 2 н/о н/о +17.0 +7.0 52 +17 +17 1010.0 986.7
09 14.06 СВ 2 н/о н/о +18.2 +5.9 44 +19 +19 1010.5 987.2
12 14.06 СВ 2 50 км ясно +13.7 +3.1 49 +13 +13 1013.1 989.3 +19.0
15 14.06 СЗ 1 н/о н/о +7.0 +2.4 73 +6 +6 1015.0 990.6
18 14.06 С 1 н/о н/о +4.4 +0.8 77 +3 +3 1016.1 991.5
21 14.06 штиль 0 н/о н/о +7.4 +1.2 65 +7 +7 1017.1 992.7
00 15.06 штиль 0 50 км ясно +11.2 +3.0 57 +11 +24 опасность
простуды
1007.4 993.3 +4.1
03 15.06 С 2 н/о н/о +19.0 +1.3 31 +20 +20 1015.6 992.2
06 15.06 В 2 н/о н/о +21.1 +2.7 30 +21 +21 комфорт 1013.8 990.6
09 15.06 В 1 н/о н/о +20.5 +3.9 33 +22 +22 комфорт 1013.1 989.9
12 15.06 ЮЗ 1 50 км ясно +12.2 +7.9 75 +12 +12 1014.2 990.3 +21.4
15 15.06 штиль 0 н/о н/о +6.8 +5.6 92 +6 +6 1015.0 990.7
18 15.06 З 1 н/о н/о +4.7 +3.8 94 +3 +3 1015.0 990.5
21 15.06 СЗ 1 н/о н/о +6.8 +4.8 87 +6 +6 1015.0 990.7

 

Местоположение метеостанции Свободный (Амурская область, Россия): широта 51.45 долгота 128.10 высота над уровнем моря 200 м.

В архиве по умолчанию представлена погода в Свободном за последнюю неделю. Архивные данные за месяц целиком и за предыдущие месяцы, начиная с января 2011 года, Вы можете получить, выбрав интересующий диапазон дат из раскрывающегося списка и нажав кнопку "Ввод!".


*Определитесь, кто Вы:
робот инопланетянин человек

Внимание! Время в таблицах - всемирное. Для получения местного времени необходимо прибавить поправку, которая равна 9 ч.

Смотрите также архив погоды в соседних городах и на ближайших метеорологических станциях:

Погода в Мазаново (Амурская область, Россия) (52 км)
Погода в Белогорске (Амурская область, Россия) (63 км)
Погода в Шимановске (Амурская область, Россия) (68 км)
Погода в Саскале (Амурская область, Россия) (86 км)
Погода в Сергеевке (Амурская область, Россия) (93 км)
Погода в Хума (Хэйлунцзян, Китай) (105 км)
Погода в Братолюбовке (Амурская область, Россия) (112 км)
Погода в Екатеринославке (Амурская область, Россия) (136 км)
Погода в Благовещенске (Амурская область, Россия) (139 км)
Погода в Айгуне (Хэйлунцзян, Китай) (141 км)

Пояснения к столбцам:

Ветер - указаны скорость ветра в м/с - средняя за 10 мин, порывы в срок и между сроками (в фигурных скобках) и направление, откуда дует ветер: С - северный, СВ - северо-восточный, В - восточный, ЮВ - юго-восточный, Ю - южный, ЮЗ - юго-западный, З - западный, СЗ - северо-западный.
Видимость - горизонтальная дальность видимости в метрах или километрах. При видимости от 1 до 10 км при отсутствии осадков обычно наблюдается дымка, при ухудшении видимости до 1 км и менее - туман. В сухую погоду видимость может ухудшаться дымом, пылью или мглою.
Явления - указаны атмосферные явления, наблюдавшиеся в срок или в последний час перед сроком; фигурными скобками обозначены явления, наблюдавшиеся между сроками (за 1-3 часа до срока); квадратными скобками обозначены град или гололедные отложения с указанием их диаметра в мм.
Облачность - указаны через наклонную черту общая и нижняя облачность в баллах и высота нижней границы облаков в метрах; квадратными скобками обозначены формы облаков: Ci - перистые, Cs - перисто-слоистые, Cc - перисто-кучевые, Ac - высококучевые, As - высокослоистые, Sc - слоисто-кучевые, Ns - слоисто-дождевые, Cu - кучевые, Cb - кучево-дождевые. Подробнее классификацию облаков см. в Атласе облаков (PDF).
T - Температура воздуха - температура, измеренная на высоте 2 м над землей.
Td - Температура точки росы - температура, при понижении до которой содержащийся в воздухе водяной пар достигнет насыщения.
f - Относительная влажность воздуха - влажноcть воздуха, измеренная на высоте 2 м над землей.
Te - Эффективная температура - температура, которую ощущает одетый по сезону человек в тени. Характеристика душности погоды. При расчете учитывается влияние влажности воздуха и скорости ветра на теплоощущения человека.
Tes - Эффективная температура на солнце - температура, которую ощущает человек, с поправкой на солнечный нагрев. Характеристика знойности погоды. Зависит от высоты солнца над горизонтом, облачности и скорости ветра. Ночью, в пасмурную погоду, а также при ветре 12 м/с и более поправка равна нулю.
P - Атмосферное давление - приведенное к уровню моря атмосферное давление.
Po - Атмосферное давление - измеренное на уровне метеостанции атмосферное давление.
Tmin - Минимальная температура - минимум температуры воздуха на высоте 2 м над землей.
Tmax - Максимальная температура - максимум температуры воздуха на высоте 2 м над землей.
R - Количество осадков - Количество выпавших осадков за период времени, мм. При наведении курсора мыши на число - период времени, за который выпало указанное количество осадков.
R24 - Количество осадков - Количество выпавших осадков за 24 часа, мм.
S - Снежный покров - Высота снежного покрова, см. При наведении курсора мыши на число - состояние снежного покрова и степень покрытия местности в баллах.